Time,TemperatureF,DewpointF,PressureIn,WindDirection,WindDirectionDegrees,WindSpeedMPH,WindSpeedGustMPH,Humidity,HourlyPrecipIn,Conditions,Clouds,dailyrainin,SoftwareType,DateUTC
2013-07-16 00:00:00,84.0,76.0,-100.00,ESE,109,17.0,-999.0,76,0.00,,,-99.99,,2013-07-16 00:00:00,
2013-07-16 00:25:00,84.0,76.0,-100.00,ESE,109,17.0,-999.0,76,0.00,,,-99.99,,2013-07-16 00:25:00,
2013-07-16 00:33:00,84.0,76.0,-100.00,ESE,109,17.0,-999.0,76,0.00,,,-99.99,,2013-07-16 00:33:00,
2013-07-16 00:53:00,84.0,76.0,-100.00,ESE,109,17.0,-999.0,76,0.00,,,-99.99,,2013-07-16 00:53:00,
2013-07-16 01:00:00,84.0,77.0,-100.00,ESE,102,17.0,-999.0,78,0.00,,,-99.99,,2013-07-16 01:00:00,
2013-07-16 01:36:00,84.0,77.0,-100.00,ESE,102,17.0,-999.0,78,0.00,,,-99.99,,2013-07-16 01:36:00,
2013-07-16 01:47:00,84.0,77.0,-100.00,ESE,102,17.0,-999.0,78,0.00,,,-99.99,,2013-07-16 01:47:00,
2013-07-16 02:00:00,84.0,76.0,-100.00,ESE,106,15.0,-999.0,78,0.00,,,-99.99,,2013-07-16 02:00:00,
2013-07-16 02:27:00,84.0,76.0,-100.00,ESE,106,15.0,-999.0,78,0.00,,,-99.99,,2013-07-16 02:27:00,
2013-07-16 02:35:00,84.0,76.0,-100.00,ESE,106,15.0,-999.0,78,0.00,,,-99.99,,2013-07-16 02:35:00,
2013-07-16 02:54:00,84.0,76.0,-100.00,ESE,106,15.0,-999.0,78,0.00,,,-99.99,,2013-07-16 02:54:00,
2013-07-16 03:00:00,83.0,77.0,-100.00,ESE,106,17.0,-999.0,82,0.00,,,-99.99,,2013-07-16 03:00:00,
2013-07-16 03:27:00,83.0,77.0,-100.00,ESE,106,17.0,-999.0,82,0.00,,,-99.99,,2013-07-16 03:27:00,
2013-07-16 03:37:00,83.0,77.0,-100.00,ESE,106,17.0,-999.0,82,0.00,,,-99.99,,2013-07-16 03:37:00,
2013-07-16 03:47:00,83.0,77.0,-100.00,ESE,106,17.0,-999.0,82,0.00,,,-99.99,,2013-07-16 03:47:00,
2013-07-16 03:57:00,83.0,77.0,-100.00,ESE,106,17.0,-999.0,82,0.00,,,-99.99,,2013-07-16 03:57:00,
2013-07-16 04:00:00,83.0,76.0,-100.00,ESE,110,16.0,-999.0,78,0.00,,,-99.99,,2013-07-16 04:00:00,
2013-07-16 04:22:00,83.0,76.0,-100.00,ESE,110,16.0,-999.0,78,0.00,,,-99.99,,2013-07-16 04:22:00,
2013-07-16 04:32:00,83.0,76.0,-100.00,ESE,110,16.0,-999.0,78,0.00,,,-99.99,,2013-07-16 04:32:00,
2013-07-16 04:43:00,83.0,76.0,-100.00,ESE,110,16.0,-999.0,78,0.00,,,-99.99,,2013-07-16 04:43:00,
2013-07-16 04:53:00,83.0,76.0,-100.00,ESE,110,16.0,-999.0,78,0.00,,,-99.99,,2013-07-16 04:53:00,
2013-07-16 05:00:00,83.0,77.0,-100.00,ESE,110,17.0,-999.0,81,0.02,,,-99.99,,2013-07-16 05:00:00,
2013-07-16 05:22:00,83.0,77.0,-100.00,ESE,110,17.0,-999.0,81,0.02,,,-99.99,,2013-07-16 05:22:00,
2013-07-16 05:32:00,83.0,77.0,-100.00,ESE,110,17.0,-999.0,81,0.02,,,-99.99,,2013-07-16 05:32:00,
2013-07-16 05:43:00,83.0,77.0,-100.00,ESE,110,17.0,-999.0,81,0.02,,,-99.99,,2013-07-16 05:43:00,
2013-07-16 05:52:00,83.0,77.0,-100.00,ESE,110,17.0,-999.0,81,0.02,,,-99.99,,2013-07-16 05:52:00,
2013-07-16 06:00:00,83.0,76.0,-100.00,ESE,103,16.0,-999.0,79,0.00,,,-99.99,,2013-07-16 06:00:00,
2013-07-16 06:22:00,83.0,76.0,-100.00,ESE,103,16.0,-999.0,79,0.00,,,-99.99,,2013-07-16 06:22:00,
2013-07-16 06:32:00,83.0,76.0,-100.00,ESE,103,16.0,-999.0,79,0.00,,,-99.99,,2013-07-16 06:32:00,
2013-07-16 06:43:00,83.0,76.0,-100.00,ESE,103,16.0,-999.0,79,0.00,,,-99.99,,2013-07-16 06:43:00,
2013-07-16 06:52:00,83.0,76.0,-100.00,ESE,103,16.0,-999.0,79,0.00,,,-99.99,,2013-07-16 06:52:00,
2013-07-16 07:00:00,82.0,77.0,-100.00,East,93,16.0,-999.0,85,0.03,,,-99.99,,2013-07-16 07:00:00,
2013-07-16 07:22:00,82.0,77.0,-100.00,East,93,16.0,-999.0,85,0.03,,,-99.99,,2013-07-16 07:22:00,
2013-07-16 07:32:00,82.0,77.0,-100.00,East,93,16.0,-999.0,85,0.03,,,-99.99,,2013-07-16 07:32:00,
2013-07-16 07:43:00,82.0,77.0,-100.00,East,93,16.0,-999.0,85,0.03,,,-99.99,,2013-07-16 07:43:00,
2013-07-16 07:52:00,82.0,77.0,-100.00,East,93,16.0,-999.0,85,0.03,,,-99.99,,2013-07-16 07:52:00,
2013-07-16 08:00:00,83.0,75.0,-100.00,ESE,108,17.0,-999.0,77,0.00,,,-99.99,,2013-07-16 08:00:00,
2013-07-16 08:22:00,83.0,75.0,-100.00,ESE,108,17.0,-999.0,77,0.00,,,-99.99,,2013-07-16 08:22:00,
2013-07-16 08:32:00,83.0,75.0,-100.00,ESE,108,17.0,-999.0,77,0.00,,,-99.99,,2013-07-16 08:32:00,
2013-07-16 08:43:00,83.0,75.0,-100.00,ESE,108,17.0,-999.0,77,0.00,,,-99.99,,2013-07-16 08:43:00,
2013-07-16 08:52:00,83.0,75.0,-100.00,ESE,108,17.0,-999.0,77,0.00,,,-99.99,,2013-07-16 08:52:00,
2013-07-16 09:00:00,83.0,75.0,-100.00,ESE,106,19.0,-999.0,78,0.00,,,-99.99,,2013-07-16 09:00:00,
2013-07-16 09:22:00,83.0,75.0,-100.00,ESE,106,19.0,-999.0,78,0.00,,,-99.99,,2013-07-16 09:22:00,
2013-07-16 09:32:00,83.0,75.0,-100.00,ESE,106,19.0,-999.0,78,0.00,,,-99.99,,2013-07-16 09:32:00,
2013-07-16 09:42:00,83.0,75.0,-100.00,ESE,106,19.0,-999.0,78,0.00,,,-99.99,,2013-07-16 09:42:00,
2013-07-16 09:52:00,83.0,75.0,-100.00,ESE,106,19.0,-999.0,78,0.00,,,-99.99,,2013-07-16 09:52:00,
2013-07-16 10:00:00,82.0,75.0,-100.00,ESE,123,20.0,-999.0,78,0.00,,,-99.99,,2013-07-16 10:00:00,
2013-07-16 10:22:00,82.0,75.0,-100.00,ESE,123,20.0,-999.0,78,0.00,,,-99.99,,2013-07-16 10:22:00,
2013-07-16 10:31:00,82.0,75.0,-100.00,ESE,123,20.0,-999.0,78,0.00,,,-99.99,,2013-07-16 10:31:00,
2013-07-16 10:43:00,82.0,75.0,-100.00,ESE,123,20.0,-999.0,78,0.00,,,-99.99,,2013-07-16 10:43:00,
2013-07-16 10:52:00,82.0,75.0,-100.00,ESE,123,20.0,-999.0,78,0.00,,,-99.99,,2013-07-16 10:52:00,
2013-07-16 11:00:00,82.0,76.0,-100.00,ESE,119,16.0,-999.0,81,0.00,,,-99.99,,2013-07-16 11:00:00,
2013-07-16 11:22:00,82.0,76.0,-100.00,ESE,119,16.0,-999.0,81,0.00,,,-99.99,,2013-07-16 11:22:00,
2013-07-16 11:32:00,82.0,76.0,-100.00,ESE,119,16.0,-999.0,81,0.00,,,-99.99,,2013-07-16 11:32:00,
2013-07-16 11:42:00,82.0,76.0,-100.00,ESE,119,16.0,-999.0,81,0.00,,,-99.99,,2013-07-16 11:42:00,
2013-07-16 11:53:00,82.0,76.0,-100.00,ESE,119,16.0,-999.0,81,0.00,,,-99.99,,2013-07-16 11:53:00,
2013-07-16 12:22:00,82.0,76.0,-100.00,ESE,103,17.0,-999.0,80,0.00,,,-99.99,,2013-07-16 12:22:00,
2013-07-16 12:32:00,82.0,76.0,-100.00,ESE,103,17.0,-999.0,80,0.00,,,-99.99,,2013-07-16 12:32:00,
2013-07-16 12:43:00,82.0,76.0,-100.00,ESE,103,17.0,-999.0,80,0.00,,,-99.99,,2013-07-16 12:43:00,
2013-07-16 12:53:00,82.0,76.0,-100.00,ESE,103,17.0,-999.0,80,0.00,,,-99.99,,2013-07-16 12:53:00,
2013-07-16 13:00:00,83.0,75.0,-100.00,East,100,18.0,-999.0,77,0.00,,,-99.99,,2013-07-16 13:00:00,
2013-07-16 13:22:00,83.0,75.0,-100.00,East,100,18.0,-999.0,77,0.00,,,-99.99,,2013-07-16 13:22:00,
2013-07-16 13:32:00,83.0,75.0,-100.00,East,100,18.0,-999.0,77,0.00,,,-99.99,,2013-07-16 13:32:00,
2013-07-16 13:42:00,83.0,75.0,-100.00,East,100,18.0,-999.0,77,0.00,,,-99.99,,2013-07-16 13:42:00,
2013-07-16 13:52:00,83.0,75.0,-100.00,East,100,18.0,-999.0,77,0.00,,,-99.99,,2013-07-16 13:52:00,
2013-07-16 14:00:00,83.0,74.0,-100.00,ESE,104,18.0,-999.0,74,0.00,,,-99.99,,2013-07-16 14:00:00,
2013-07-16 14:21:00,83.0,74.0,-100.00,ESE,104,18.0,-999.0,74,0.00,,,-99.99,,2013-07-16 14:21:00,
2013-07-16 14:32:00,83.0,74.0,-100.00,ESE,104,18.0,-999.0,74,0.00,,,-99.99,,2013-07-16 14:32:00,
2013-07-16 14:43:00,83.0,74.0,-100.00,ESE,104,18.0,-999.0,74,0.00,,,-99.99,,2013-07-16 14:43:00,
2013-07-16 14:52:00,83.0,74.0,-100.00,ESE,104,18.0,-999.0,74,0.00,,,-99.99,,2013-07-16 14:52:00,
2013-07-16 15:00:00,82.0,74.0,-100.00,ESE,104,18.0,-999.0,75,0.00,,,-99.99,,2013-07-16 15:00:00,
2013-07-16 15:21:00,82.0,74.0,-100.00,ESE,104,18.0,-999.0,75,0.00,,,-99.99,,2013-07-16 15:21:00,
2013-07-16 15:32:00,82.0,74.0,-100.00,ESE,104,18.0,-999.0,75,0.00,,,-99.99,,2013-07-16 15:32:00,
2013-07-16 15:43:00,82.0,74.0,-100.00,ESE,104,18.0,-999.0,75,0.00,,,-99.99,,2013-07-16 15:43:00,
2013-07-16 15:53:00,82.0,74.0,-100.00,ESE,104,18.0,-999.0,75,0.00,,,-99.99,,2013-07-16 15:53:00,
2013-07-16 16:00:00,80.0,75.0,-100.00,East,93,20.0,-999.0,84,0.02,,,-99.99,,2013-07-16 16:00:00,
2013-07-16 16:22:00,80.0,75.0,-100.00,East,93,20.0,-999.0,84,0.02,,,-99.99,,2013-07-16 16:22:00,
2013-07-16 16:32:00,80.0,75.0,-100.00,East,93,20.0,-999.0,84,0.02,,,-99.99,,2013-07-16 16:32:00,
2013-07-16 16:43:00,80.0,75.0,-100.00,East,93,20.0,-999.0,84,0.02,,,-99.99,,2013-07-16 16:43:00,
2013-07-16 16:52:00,80.0,75.0,-100.00,East,93,20.0,-999.0,84,0.02,,,-99.99,,2013-07-16 16:52:00,
2013-07-16 17:00:00,83.0,74.0,-100.00,ESE,104,20.0,-999.0,74,0.00,,,-99.99,,2013-07-16 17:00:00,
2013-07-16 17:22:00,83.0,74.0,-100.00,ESE,104,20.0,-999.0,74,0.00,,,-99.99,,2013-07-16 17:22:00,
2013-07-16 17:32:00,83.0,74.0,-100.00,ESE,104,20.0,-999.0,74,0.00,,,-99.99,,2013-07-16 17:32:00,
2013-07-16 17:43:00,83.0,74.0,-100.00,ESE,104,20.0,-999.0,74,0.00,,,-99.99,,2013-07-16 17:43:00,
2013-07-16 17:53:00,83.0,74.0,-100.00,ESE,104,20.0,-999.0,74,0.00,,,-99.99,,2013-07-16 17:53:00,
2013-07-16 18:00:00,83.0,75.0,-100.00,East,82,20.0,-999.0,78,0.00,,,-99.99,,2013-07-16 18:00:00,
2013-07-16 18:22:00,83.0,75.0,-100.00,East,82,20.0,-999.0,78,0.00,,,-99.99,,2013-07-16 18:22:00,
2013-07-16 18:32:00,83.0,75.0,-100.00,East,82,20.0,-999.0,78,0.00,,,-99.99,,2013-07-16 18:32:00,
2013-07-16 18:43:00,83.0,75.0,-100.00,East,82,20.0,-999.0,78,0.00,,,-99.99,,2013-07-16 18:43:00,
2013-07-16 18:53:00,83.0,75.0,-100.00,East,82,20.0,-999.0,78,0.00,,,-99.99,,2013-07-16 18:53:00,
2013-07-16 19:00:00,80.0,73.0,-100.00,ESE,103,19.0,-999.0,78,0.00,,,-99.99,,2013-07-16 19:00:00,
2013-07-16 19:22:00,80.0,73.0,-100.00,ESE,103,19.0,-999.0,78,0.00,,,-99.99,,2013-07-16 19:22:00,
2013-07-16 19:32:00,80.0,73.0,-100.00,ESE,103,19.0,-999.0,78,0.00,,,-99.99,,2013-07-16 19:32:00,
2013-07-16 19:43:00,80.0,73.0,-100.00,ESE,103,19.0,-999.0,78,0.00,,,-99.99,,2013-07-16 19:43:00,
2013-07-16 19:52:00,80.0,73.0,-100.00,ESE,103,19.0,-999.0,78,0.00,,,-99.99,,2013-07-16 19:52:00,
2013-07-16 20:00:00,83.0,74.0,-100.00,East,91,18.0,-999.0,73,0.00,,,-99.99,,2013-07-16 20:00:00,
2013-07-16 20:22:00,83.0,74.0,-100.00,East,91,18.0,-999.0,73,0.00,,,-99.99,,2013-07-16 20:22:00,
2013-07-16 20:32:00,83.0,74.0,-100.00,East,91,18.0,-999.0,73,0.00,,,-99.99,,2013-07-16 20:32:00,
2013-07-16 20:43:00,83.0,74.0,-100.00,East,91,18.0,-999.0,73,0.00,,,-99.99,,2013-07-16 20:43:00,
2013-07-16 20:52:00,83.0,74.0,-100.00,East,91,18.0,-999.0,73,0.00,,,-99.99,,2013-07-16 20:52:00,
2013-07-16 21:00:00,79.0,75.0,-100.00,East,97,23.0,-999.0,89,0.00,,,-99.99,,2013-07-16 21:00:00,
2013-07-16 21:22:00,79.0,75.0,-100.00,East,97,23.0,-999.0,89,0.00,,,-99.99,,2013-07-16 21:22:00,
2013-07-16 21:32:00,79.0,75.0,-100.00,East,97,23.0,-999.0,89,0.00,,,-99.99,,2013-07-16 21:32:00,
2013-07-16 21:43:00,79.0,75.0,-100.00,East,97,23.0,-999.0,89,0.00,,,-99.99,,2013-07-16 21:43:00,
2013-07-16 21:52:00,79.0,75.0,-100.00,East,97,23.0,-999.0,89,0.00,,,-99.99,,2013-07-16 21:52:00,
2013-07-16 22:00:00,79.0,74.0,-100.00,East,81,14.0,-999.0,85,0.04,,,-99.99,,2013-07-16 22:00:00,
2013-07-16 22:22:00,79.0,74.0,-100.00,East,81,14.0,-999.0,85,0.04,,,-99.99,,2013-07-16 22:22:00,
2013-07-16 22:33:00,79.0,74.0,-100.00,East,81,14.0,-999.0,85,0.04,,,-99.99,,2013-07-16 22:33:00,
2013-07-16 22:43:00,79.0,74.0,-100.00,East,81,14.0,-999.0,85,0.04,,,-99.99,,2013-07-16 22:43:00,
2013-07-16 22:52:00,79.0,74.0,-100.00,East,81,14.0,-999.0,85,0.04,,,-99.99,,2013-07-16 22:52:00,
2013-07-16 23:00:00,80.0,75.0,-100.00,East,94,17.0,-999.0,84,0.00,,,-99.99,,2013-07-16 23:00:00,
2013-07-16 23:22:00,80.0,75.0,-100.00,East,94,17.0,-999.0,84,0.00,,,-99.99,,2013-07-16 23:22:00,
2013-07-16 23:32:00,80.0,75.0,-100.00,East,94,17.0,-999.0,84,0.00,,,-99.99,,2013-07-16 23:32:00,
2013-07-16 23:43:00,80.0,75.0,-100.00,East,94,17.0,-999.0,84,0.00,,,-99.99,,2013-07-16 23:43:00,
2013-07-16 23:52:00,80.0,75.0,-100.00,East,94,17.0,-999.0,84,0.00,,,-99.99,,2013-07-16 23:52:00,